| time (UTC) | temp C | wind direction | speed KPH | gust KPH | rain 1hr cm | rain 24hr cm | rain mn cm | humidity % | barometer mb |
| 20260508032410 | 10 | 68 | 11.3 | 24.1 | 0.00 | 0.05 | 0.00 | 99 | 997.1 |
| 20260508031900 | 10 | 0 | 6.4 | 24.1 | 0.00 | 0.05 | 0.00 | 99 | 997.0 |
| 20260508031349 | 10 | 23 | 12.9 | 24.1 | 0.00 | 0.05 | 0.00 | 99 | 997.3 |
| 20260508030330 | 10 | 68 | 9.7 | 25.7 | 0.00 | 0.05 | 0.00 | 99 | 997.5 |
| 20260508024801 | 10 | 68 | 12.9 | 24.1 | 0.03 | 0.05 | 1.50 | 99 | 997.6 |
| 20260508024249 | 11 | 338 | 11.3 | 22.5 | 0.03 | 0.05 | 1.50 | 99 | 997.7 |
| 20260508023739 | 11 | 23 | 11.3 | 22.5 | 0.03 | 0.05 | 1.50 | 99 | 997.7 |
| 20260508022720 | 11 | 68 | 8.0 | 25.7 | 0.03 | 0.05 | 1.50 | 99 | 997.3 |
| 20260508022206 | 11 | 338 | 12.9 | 24.1 | 0.03 | 0.05 | 1.50 | 99 | 997.4 |
| 20260508021656 | 11 | 0 | 6.4 | 24.1 | 0.03 | 0.05 | 1.50 | 99 | 997.6 |
| 20260508020636 | 11 | 45 | 6.4 | 29.0 | 0.03 | 0.05 | 1.50 | 99 | 997.6 |
| 20260508020126 | 11 | 45 | 8.0 | 29.0 | 0.03 | 0.05 | 1.50 | 99 | 997.5 |
| 20260508015615 | 11 | 315 | 11.3 | 22.5 | 0.03 | 0.05 | 1.50 | 99 | 997.6 |
| 20260508015105 | 11 | 293 | 12.9 | 22.5 | 0.00 | 0.03 | 1.47 | 99 | 997.6 |
| 20260508014556 | 11 | 0 | 4.8 | 17.7 | 0.00 | 0.03 | 1.47 | 99 | 997.7 |
| 20260508014044 | 11 | 315 | 8.0 | 17.7 | 0.00 | 0.03 | 1.47 | 99 | 998.0 |
| 20260508013534 | 11 | 90 | 6.4 | 12.9 | 0.00 | 0.03 | 1.47 | 99 | 998.0 |
| 20260508013024 | 11 | 45 | 4.8 | 14.5 | 0.00 | 0.03 | 1.47 | 99 | 998.2 |
| 20260508012519 | 12 | 0 | 4.8 | 14.5 | 0.00 | 0.03 | 1.47 | 99 | 998.4 |
| 20260508012006 | 12 | 45 | 4.8 | 14.5 | 0.00 | 0.03 | 1.47 | 99 | 998.4 |
| 20260508011456 | 12 | 45 | 3.2 | 14.5 | 0.00 | 0.03 | 1.47 | 99 | 998.2 |
| 20260508010944 | 12 | 23 | 4.8 | 14.5 | 0.00 | 0.03 | 1.47 | 99 | 998.5 |
| 20260508010433 | 12 | 0 | 3.2 | 14.5 | 0.00 | 0.03 | 1.47 | 99 | 998.5 |
| 20260508005923 | 12 | 45 | 3.2 | 14.5 | 0.00 | 0.03 | 1.47 | 99 | 998.6 |
| 20260508005414 | 12 | 68 | 1.6 | 14.5 | 0.00 | 0.03 | 1.47 | 99 | 998.6 |
| 20260508004409 | 12 | 338 | 3.2 | 11.3 | 0.00 | 0.03 | 1.47 | 98 | 998.7 |
| 20260508003843 | 12 | 45 | 1.6 | 11.3 | 0.00 | 0.03 | 1.47 | 98 | 998.9 |
| 20260508003333 | 12 | 338 | 0.0 | 9.7 | 0.03 | 0.03 | 1.47 | 98 | 999.0 |
| 20260508001803 | 12 | 23 | 4.8 | 17.7 | 0.03 | 0.03 | 1.47 | 98 | 998.8 |
| 20260508001252 | 12 | 45 | 6.4 | 17.7 | 0.03 | 0.03 | 1.47 | 98 | 998.9 |
| 20260508000234 | 12 | 23 | 4.8 | 14.5 | 0.03 | 0.03 | 1.47 | 98 | 998.8 |
| 20260507235723 | 12 | 338 | 4.8 | 17.7 | 0.03 | 0.03 | 1.47 | 98 | 998.9 |
| 20260507234704 | 12 | 0 | 4.8 | 17.7 | 0.03 | 0.03 | 1.47 | 98 | 998.8 |
| 20260507234151 | 12 | 45 | 4.8 | 11.3 | 0.03 | 0.03 | 1.47 | 97 | 998.7 |
| 20260507233642 | 13 | 23 | 3.2 | 6.4 | 0.03 | 0.03 | 1.47 | 98 | 998.6 |
| 20260507233132 | 12 | 23 | 1.6 | 3.2 | 0.00 | 0.00 | 1.45 | 97 | 998.7 |
| 20260507232622 | 12 | 23 | 0.0 | 0.0 | 0.00 | 0.00 | 1.45 | 97 | 998.7 |
| 20260507232116 | 12 | 0 | 0.0 | 0.0 | 0.00 | 0.00 | 1.45 | 97 | 998.6 |
| 20260507231605 | 12 | 23 | 0.0 | 0.0 | 0.00 | 0.00 | 1.45 | 97 | 998.8 |
| 20260507231054 | 12 | 23 | 0.0 | 6.4 | 0.00 | 0.00 | 1.45 | 97 | 998.8 |
| 20260507230549 | 12 | 45 | 0.0 | 6.4 | 0.00 | 0.00 | 1.45 | 97 | 998.2 |
| 20260507230035 | 12 | 0 | 0.0 | 3.2 | 0.00 | 0.00 | 1.45 | 97 | 998.5 |
| 20260507225525 | 12 | 338 | 0.0 | 0.0 | 0.00 | 0.00 | 1.45 | 97 | 998.5 |
| 20260507225014 | 12 | 338 | 0.0 | 0.0 | 0.00 | 0.00 | 1.45 | 97 | 998.6 |
| 20260507224504 | 12 | 45 | 0.0 | 6.4 | 0.00 | 0.00 | 1.45 | 97 | 998.6 |
| 20260507223953 | 12 | 23 | 0.0 | 6.4 | 0.00 | 0.00 | 1.45 | 97 | 998.2 |
| 20260507223445 | 12 | 0 | 0.0 | 6.4 | 0.00 | 0.00 | 1.45 | 97 | 998.1 |
| 20260507222428 | 12 | 23 | 0.0 | 9.7 | 0.00 | 0.00 | 1.45 | 96 | 998.1 |
| 20260507221915 | 12 | 338 | 3.2 | 9.7 | 0.00 | 0.00 | 1.45 | 96 | 998.0 |
| 20260507221405 | 12 | 23 | 3.2 | 9.7 | 0.00 | 0.00 | 1.45 | 96 | 997.9 |
| 20260507220853 | 12 | 338 | 3.2 | 9.7 | 0.00 | 0.00 | 1.45 | 96 | 998.0 |
| 20260507220343 | 12 | 338 | 0.0 | 6.4 | 0.00 | 0.00 | 1.45 | 96 | 998.1 |
| 20260507215833 | 13 | 338 | 0.0 | 9.7 | 0.00 | 0.00 | 1.45 | 96 | 998.2 |
| 20260507215323 | 13 | 23 | 4.8 | 9.7 | 0.00 | 0.00 | 1.45 | 96 | 998.0 |
| 20260507214302 | 13 | 0 | 1.6 | 6.4 | 0.00 | 0.00 | 1.45 | 96 | 998.5 |
| 20260507213242 | 13 | 338 | 4.8 | 9.7 | 0.00 | 0.00 | 1.45 | 95 | 997.5 |
| 20260507212733 | 13 | 0 | 0.0 | 6.4 | 0.00 | 0.00 | 1.45 | 95 | 997.4 |
| 20260507212222 | 13 | 0 | 0.0 | 6.4 | 0.00 | 0.00 | 1.45 | 95 | 997.3 |
| 20260507211713 | 13 | 0 | 0.0 | 9.7 | 0.00 | 0.00 | 1.45 | 95 | 997.0 |
| 20260507211202 | 13 | 23 | 3.2 | 14.5 | 0.00 | 0.00 | 1.45 | 95 | 996.7 |
| 20260507210652 | 13 | 0 | 6.4 | 14.5 | 0.00 | 0.00 | 1.45 | 94 | 996.7 |
| 20260507210142 | 13 | 0 | 4.8 | 9.7 | 0.00 | 0.00 | 1.45 | 94 | 996.7 |
| 20260507205631 | 13 | 23 | 6.4 | 11.3 | 0.00 | 0.00 | 1.45 | 94 | 997.2 |
| 20260507205127 | 13 | 0 | 6.4 | 11.3 | 0.00 | 0.00 | 1.45 | 94 | 997.4 |
| 20260507204613 | 13 | 23 | 3.2 | 11.3 | 0.00 | 0.00 | 1.45 | 93 | 997.7 |
| 20260507203551 | 13 | 0 | 4.8 | 11.3 | 0.00 | 0.00 | 1.45 | 93 | 998.2 |
| 20260507203041 | 14 | 338 | 6.4 | 11.3 | 0.00 | 0.00 | 1.45 | 93 | 998.7 |
| 20260507202531 | 14 | 0 | 3.2 | 9.7 | 0.00 | 0.00 | 1.45 | 92 | 998.6 |
| 20260507202021 | 14 | 270 | 0.0 | 9.7 | 0.00 | 0.00 | 1.45 | 92 | 999.0 |
| 20260507201517 | 14 | 0 | 3.2 | 9.7 | 0.00 | 0.00 | 1.45 | 91 | 998.9 |
| 20260507201001 | 14 | 0 | 1.6 | 9.7 | 0.00 | 0.00 | 1.45 | 90 | 999.0 |
| 20260507200451 | 15 | 338 | 3.2 | 12.9 | 0.00 | 0.00 | 1.45 | 89 | 999.1 |
| 20260507195941 | 15 | 23 | 3.2 | 12.9 | 0.00 | 0.00 | 1.45 | 89 | 999.3 |
| 20260507195431 | 15 | 0 | 3.2 | 12.9 | 0.00 | 0.00 | 1.45 | 88 | 999.3 |
| 20260507194921 | 15 | 45 | 6.4 | 12.9 | 0.00 | 0.00 | 1.45 | 89 | 999.6 |
| 20260507194410 | 15 | 45 | 4.8 | 11.3 | 0.00 | 0.00 | 1.45 | 90 | 999.6 |
| 20260507193351 | 15 | 338 | 6.4 | 14.5 | 0.00 | 0.00 | 1.45 | 90 | 999.6 |
| 20260507192840 | 15 | 338 | 4.8 | 14.5 | 0.00 | 0.00 | 1.45 | 90 | 999.5 |
| 20260507192334 | 15 | 0 | 3.2 | 14.5 | 0.00 | 0.00 | 1.45 | 90 | 999.5 |
| 20260507191313 | 15 | 338 | 6.4 | 12.9 | 0.00 | 0.00 | 1.45 | 93 | 999.7 |
| 20260507190800 | 15 | 68 | 6.4 | 9.7 | 0.00 | 0.00 | 1.45 | 94 | 999.6 |
| 20260507190249 | 14 | 338 | 3.2 | 9.7 | 0.00 | 0.00 | 1.45 | 95 | 999.6 |
| 20260507185740 | 15 | 315 | 3.2 | 9.7 | 0.00 | 0.00 | 1.45 | 95 | 999.6 |
| 20260507185229 | 15 | 0 | 3.2 | 6.4 | 0.00 | 0.00 | 1.45 | 95 | 999.7 |
| 20260507184719 | 14 | 23 | 1.6 | 11.3 | 0.00 | 0.00 | 1.45 | 95 | 999.6 |
| 20260507184209 | 15 | 23 | 4.8 | 11.3 | 0.00 | 0.00 | 1.45 | 93 | 999.6 |
| 20260507183659 | 16 | 0 | 6.4 | 17.7 | 0.00 | 0.00 | 1.45 | 90 | 999.7 |
| 20260507183148 | 16 | 315 | 6.4 | 17.7 | 0.00 | 0.00 | 1.45 | 89 | 999.5 |
| 20260507182639 | 15 | 0 | 1.6 | 11.3 | 0.00 | 0.00 | 1.45 | 90 | 999.6 |
| 20260507182125 | 15 | 45 | 1.6 | 11.3 | 0.00 | 0.00 | 1.45 | 90 | 999.3 |
| 20260507181615 | 15 | 0 | 6.4 | 11.3 | 0.00 | 0.00 | 1.45 | 90 | 999.3 |
| 20260507181104 | 16 | 23 | 3.2 | 11.3 | 0.00 | 0.00 | 1.45 | 90 | 999.0 |
| 20260507180558 | 16 | 45 | 3.2 | 11.3 | 0.00 | 0.00 | 1.45 | 91 | 998.9 |
| 20260507180048 | 16 | 338 | 3.2 | 11.3 | 0.00 | 0.00 | 1.45 | 91 | 999.0 |
| 20260507175538 | 16 | 338 | 4.8 | 11.3 | 0.00 | 0.00 | 1.45 | 90 | 999.2 |
| 20260507175032 | 16 | 0 | 4.8 | 11.3 | 0.00 | 0.00 | 1.45 | 89 | 999.5 |
| 20260507174519 | 16 | 23 | 4.8 | 11.3 | 0.00 | 0.00 | 1.45 | 91 | 999.5 |
| 20260507174009 | 16 | 23 | 3.2 | 11.3 | 0.00 | 0.00 | 1.45 | 92 | 999.4 |
| 20260507173458 | 15 | 315 | 6.4 | 11.3 | 0.00 | 0.00 | 1.45 | 91 | 999.4 |
| 20260507172946 | 15 | 338 | 1.6 | 12.9 | 0.00 | 0.00 | 1.45 | 91 | 999.2 |
| 20260507172436 | 16 | 0 | 4.8 | 12.9 | 0.00 | 0.00 | 1.45 | 89 | 999.1 |
| 20260507171926 | 16 | 338 | 4.8 | 9.7 | 0.00 | 0.00 | 1.45 | 88 | 999.0 |
| 20260507171417 | 16 | 45 | 3.2 | 12.9 | 0.00 | 0.00 | 1.45 | 88 | 998.8 |
| 20260507170907 | 16 | 338 | 4.8 | 12.9 | 0.00 | 0.00 | 1.45 | 90 | 998.5 |
| 20260507170357 | 15 | 0 | 4.8 | 9.7 | 0.00 | 0.00 | 1.45 | 92 | 998.6 |
| 20260507165846 | 15 | 338 | 3.2 | 9.7 | 0.00 | 0.00 | 1.45 | 93 | 998.6 |
| 20260507165336 | 15 | 315 | 0.0 | 12.9 | 0.00 | 0.00 | 1.45 | 93 | 998.7 |
| 20260507164826 | 15 | 338 | 3.2 | 12.9 | 0.00 | 0.00 | 1.45 | 93 | 999.1 |
| 20260507164316 | 15 | 0 | 6.4 | 11.3 | 0.00 | 0.00 | 1.45 | 96 | 998.8 |
| 20260507163805 | 15 | 338 | 6.4 | 6.4 | 0.00 | 0.00 | 1.45 | 97 | 998.8 |
| 20260507145027 | 13 | 23 | 3.2 | 11.3 | 0.00 | 0.33 | 1.45 | 99 | 998.5 |
| 20260507144517 | 13 | 338 | 1.6 | 20.9 | 0.00 | 0.33 | 1.45 | 99 | 998.6 |
| 20260507144003 | 13 | 293 | 11.3 | 20.9 | 0.00 | 0.33 | 1.45 | 99 | 998.6 |
| 20260507143459 | 13 | 338 | 6.4 | 17.7 | 0.00 | 0.33 | 1.45 | 99 | 998.4 |
| 20260507142941 | 14 | 315 | 8.0 | 17.7 | 0.00 | 0.33 | 1.45 | 99 | 998.1 |
| 20260507142431 | 14 | 23 | 3.2 | 12.9 | 0.00 | 0.33 | 1.45 | 99 | 998.6 |
| 20260507141407 | 13 | 338 | 4.8 | 17.7 | 0.00 | 0.33 | 1.45 | 99 | 999.1 |
| 20260507140858 | 13 | 0 | 6.4 | 17.7 | 0.00 | 0.33 | 1.45 | 99 | 999.0 |
| 20260507140358 | 13 | 315 | 4.8 | 11.3 | 0.00 | 0.33 | 1.45 | 99 | 999.5 |
| 20260507135327 | 13 | 90 | 0.0 | 11.3 | 0.00 | 0.33 | 1.45 | 99 | 1000.5 |
| 20260507134817 | 13 | 315 | 0.0 | 11.3 | 0.00 | 0.33 | 1.45 | 99 | 999.6 |
| 20260507134308 | 13 | 23 | 3.2 | 11.3 | 0.00 | 0.33 | 1.45 | 99 | 999.6 |
| 20260507133757 | 13 | 338 | 3.2 | 11.3 | 0.00 | 0.33 | 1.45 | 99 | 999.2 |
| 20260507133301 | 13 | 0 | 6.4 | 9.7 | 0.00 | 0.33 | 1.45 | 99 | 999.0 |
| 20260507132238 | 13 | 315 | 0.0 | 17.7 | 0.00 | 0.33 | 1.45 | 99 | 999.7 |
| 20260507131725 | 13 | 338 | 4.8 | 17.7 | 0.00 | 0.33 | 1.45 | 99 | 999.6 |
| 20260507131215 | 13 | 0 | 4.8 | 14.5 | 0.00 | 0.33 | 1.45 | 99 | 998.8 |
| 20260507130702 | 14 | 0 | 3.2 | 14.5 | 0.00 | 0.33 | 1.45 | 99 | 999.1 |
| 20260507130152 | 14 | 338 | 4.8 | 14.5 | 0.03 | 0.33 | 1.45 | 99 | 999.4 |
| 20260507125638 | 13 | 45 | 3.2 | 12.9 | 0.03 | 0.33 | 1.45 | 99 | 999.4 |
| 20260507125126 | 13 | 338 | 4.8 | 11.3 | 0.03 | 0.33 | 1.45 | 99 | 999.5 |
| 20260507124615 | 13 | 0 | 1.6 | 12.9 | 0.03 | 0.33 | 1.45 | 99 | 999.0 |
| 20260507123045 | 13 | 23 | 6.4 | 12.9 | 0.03 | 0.33 | 1.45 | 99 | 998.6 |
| 20260507122027 | 13 | 0 | 6.4 | 17.7 | 0.03 | 0.33 | 1.45 | 99 | 999.2 |
| 20260507121522 | 13 | 23 | 6.4 | 17.7 | 0.03 | 0.33 | 1.45 | 99 | 999.3 |
| 20260507121009 | 13 | 338 | 3.2 | 14.5 | 0.05 | 0.33 | 1.45 | 99 | 999.5 |
| 20260507120000 | 14 | 0 | 1.6 | 12.9 | 0.03 | 0.30 | 1.42 | 99 | 999.6 |
| 20260507115447 | 14 | 23 | 3.2 | 12.9 | 0.03 | 0.30 | 1.42 | 99 | 999.6 |
| 20260507114937 | 13 | 23 | 4.8 | 14.5 | 0.03 | 0.30 | 1.42 | 99 | 999.2 |
| 20260507113909 | 13 | 0 | 6.4 | 20.9 | 0.03 | 0.30 | 1.42 | 99 | 998.5 |
| 20260507113400 | 13 | 23 | 6.4 | 17.7 | 0.03 | 0.30 | 1.42 | 99 | 998.7 |
| 20260507112846 | 13 | 315 | 6.4 | 17.7 | 0.03 | 0.30 | 1.42 | 99 | 998.6 |
| 20260507112336 | 14 | 23 | 9.7 | 24.1 | 0.03 | 0.30 | 1.42 | 99 | 998.5 |
| 20260507111825 | 14 | 23 | 12.9 | 24.1 | 0.05 | 0.30 | 1.42 | 99 | 998.6 |
| 20260507111314 | 14 | 338 | 6.4 | 17.7 | 0.03 | 0.28 | 1.37 | 99 | 998.5 |
| 20260507110803 | 14 | 23 | 8.0 | 17.7 | 0.03 | 0.28 | 1.37 | 99 | 998.6 |
| 20260507110253 | 14 | 0 | 6.4 | 17.7 | 0.03 | 0.28 | 1.37 | 99 | 998.7 |
| 20260507105743 | 14 | 0 | 6.4 | 14.5 | 0.05 | 0.28 | 1.37 | 99 | 998.2 |
| 20260507105233 | 13 | 338 | 3.2 | 12.9 | 0.05 | 0.28 | 1.37 | 99 | 998.1 |
| 20260507104724 | 13 | 0 | 6.4 | 14.5 | 0.05 | 0.28 | 1.37 | 99 | 998.1 |
| 20260507104213 | 13 | 0 | 9.7 | 17.7 | 0.05 | 0.28 | 1.37 | 99 | 998.6 |
| 20260507103703 | 13 | 45 | 6.4 | 17.7 | 0.10 | 0.28 | 1.37 | 99 | 998.4 |
| 20260507103153 | 13 | 338 | 6.4 | 17.7 | 0.10 | 0.28 | 1.37 | 99 | 997.9 |
| 20260507102657 | 13 | 338 | 6.4 | 17.7 | 0.13 | 0.28 | 1.37 | 99 | 997.9 |
| 20260507102143 | 13 | 0 | 4.8 | 14.5 | 0.13 | 0.28 | 1.37 | 99 | 998.2 |
| 20260507101121 | 13 | 23 | 4.8 | 20.9 | 0.13 | 0.23 | 1.35 | 99 | 998.9 |
| 20260507100608 | 13 | 0 | 6.4 | 20.9 | 0.15 | 0.23 | 1.35 | 99 | 998.9 |
| 20260507100059 | 13 | 0 | 9.7 | 17.7 | 0.15 | 0.23 | 1.35 | 99 | 998.9 |
| 20260507095544 | 13 | 23 | 3.2 | 17.7 | 0.15 | 0.20 | 1.32 | 99 | 999.3 |
| 20260507095034 | 13 | 68 | 4.8 | 17.7 | 0.18 | 0.20 | 1.32 | 99 | 999.4 |
| 20260507094518 | 13 | 45 | 3.2 | 17.7 | 0.20 | 0.20 | 1.32 | 99 | 999.4 |
| 20260507093501 | 13 | 293 | 9.7 | 22.5 | 0.18 | 0.18 | 1.30 | 99 | 998.9 |
| 20260507092951 | 13 | 45 | 6.4 | 22.5 | 0.18 | 0.18 | 1.30 | 99 | 999.3 |
| 20260507092442 | 13 | 23 | 9.7 | 22.5 | 0.15 | 0.15 | 1.27 | 99 | 999.3 |
| 20260507091931 | 13 | 23 | 8.0 | 22.5 | 0.15 | 0.15 | 1.27 | 99 | 999.7 |
| 20260507090400 | 13 | 315 | 3.2 | 14.5 | 0.10 | 0.10 | 1.19 | 99 | 1000.0 |
| 20260507084842 | 13 | 0 | 4.8 | 9.7 | 0.03 | 0.03 | 1.14 | 99 | 1000.2 |
| 20260507084328 | 13 | 0 | 1.6 | 11.3 | 0.00 | 0.00 | 1.12 | 99 | 1000.3 |
| 20260507083819 | 13 | 23 | 0.0 | 11.3 | 0.00 | 0.00 | 1.12 | 99 | 1000.2 |
| 20260507083306 | 13 | 45 | 0.0 | 9.7 | 0.00 | 0.00 | 1.12 | 99 | 1000.1 |
| 20260507082756 | 13 | 23 | 3.2 | 17.7 | 0.00 | 0.00 | 1.12 | 99 | 1000.0 |
| 20260507082242 | 13 | 45 | 3.2 | 17.7 | 0.00 | 0.00 | 1.12 | 99 | 999.8 |
| 20260507081733 | 13 | 338 | 4.8 | 12.9 | 0.00 | 0.00 | 1.12 | 99 | 999.9 |
| 20260507081219 | 13 | 0 | 4.8 | 11.3 | 0.00 | 0.00 | 1.12 | 99 | 999.8 |
| 20260507080159 | 13 | 23 | 1.6 | 9.7 | 0.00 | 0.00 | 1.12 | 99 | 999.4 |
| 20260507075649 | 13 | 0 | 3.2 | 9.7 | 0.00 | 0.00 | 1.12 | 99 | 999.1 |
| 20260507075139 | 13 | 315 | 0.0 | 6.4 | 0.00 | 0.00 | 1.12 | 99 | 998.7 |
| 20260507074119 | 13 | 68 | 0.0 | 0.0 | 0.00 | 0.00 | 1.12 | 99 | 998.6 |
| 20260507072549 | 13 | 315 | 0.0 | 0.0 | 0.43 | 1.68 | 1.04 | 99 | 998.2 |
| 20260507072036 | 13 | 338 | 0.0 | 0.0 | 0.43 | 1.65 | 1.02 | 99 | 998.6 |
| 20260507071524 | 13 | 0 | 0.0 | 3.2 | 0.38 | 1.60 | 0.99 | 99 | 998.2 |
| 20260507065951 | 13 | 338 | 3.2 | 6.4 | 0.36 | 1.50 | 0.86 | 99 | 999.0 |
| 20260507065441 | 13 | 0 | 0.0 | 0.0 | 0.33 | 1.45 | 0.81 | 99 | 998.8 |
| 20260507064931 | 13 | 45 | 0.0 | 0.0 | 0.33 | 1.42 | 0.79 | 99 | 999.0 |
| 20260507064421 | 13 | 0 | 0.0 | 0.0 | 0.33 | 1.37 | 0.76 | 99 | 999.1 |
| 20260507063911 | 13 | 338 | 0.0 | 0.0 | 0.33 | 1.35 | 0.71 | 99 | 999.4 |
| 20260507063401 | 14 | 315 | 0.0 | 0.0 | 0.30 | 1.32 | 0.69 | 99 | 999.4 |
| 20260507062850 | 14 | 23 | 0.0 | 0.0 | 0.28 | 1.30 | 0.66 | 99 | 999.5 |
| 20260507061831 | 14 | 338 | 0.0 | 0.0 | 0.28 | 1.22 | 0.61 | 99 | 999.2 |
| 20260507061333 | 14 | 315 | 0.0 | 0.0 | 0.28 | 1.19 | 0.56 | 99 | 999.2 |
| 20260507060820 | 14 | 338 | 0.0 | 0.0 | 0.28 | 1.17 | 0.53 | 99 | 999.1 |
| 20260507060310 | 14 | 338 | 0.0 | 0.0 | 0.28 | 1.17 | 0.53 | 99 | 999.0 |
| 20260507055245 | 14 | 315 | 0.0 | 0.0 | 0.28 | 1.12 | 0.48 | 99 | 998.5 |
| 20260507054735 | 14 | 315 | 0.0 | 0.0 | 0.20 | 1.04 | 0.46 | 99 | 998.7 |
| 20260507054222 | 14 | 338 | 0.0 | 0.0 | 0.20 | 1.04 | 0.43 | 99 | 998.6 |
| 20260507053712 | 14 | 315 | 0.0 | 0.0 | 0.18 | 1.02 | 0.38 | 99 | 998.4 |
| 20260507053159 | 14 | 338 | 0.0 | 6.4 | 0.20 | 1.02 | 0.38 | 99 | 998.4 |
| 20260507052649 | 14 | 0 | 0.0 | 6.4 | 0.20 | 0.99 | 0.36 | 99 | 998.7 |
| 20260507052138 | 14 | 68 | 1.6 | 12.9 | 0.18 | 0.97 | 0.33 | 99 | 998.6 |
| 20260507051118 | 14 | 338 | 3.2 | 6.4 | 0.18 | 0.94 | 0.30 | 99 | 998.9 |
| 20260507050608 | 14 | 23 | 0.0 | 0.0 | 0.18 | 0.89 | 0.28 | 99 | 999.0 |
| 20260507045547 | 14 | 0 | 0.0 | 9.7 | 0.18 | 0.86 | 0.23 | 99 | 999.2 |
| 20260507045037 | 14 | 45 | 0.0 | 9.7 | 0.15 | 0.84 | 0.20 | 99 | 999.4 |
| 20260507044032 | 14 | 45 | 1.6 | 11.3 | 0.15 | 0.84 | 0.20 | 99 | 998.2 |
| 20260507043519 | 14 | 315 | 0.0 | 11.3 | 0.13 | 0.81 | 0.18 | 99 | 998.2 |
| 20260507043006 | 14 | 45 | 3.2 | 6.4 | 0.15 | 0.81 | 0.18 | 99 | 998.4 |
| 20260507042458 | 15 | 45 | 0.0 | 3.2 | 0.13 | 0.79 | 0.15 | 99 | 998.8 |
| 20260507041942 | 15 | 23 | 0.0 | 3.2 | 0.13 | 0.79 | 0.15 | 99 | 998.4 |
| 20260507041433 | 15 | 23 | 0.0 | 0.0 | 0.13 | 0.76 | 0.13 | 99 | 998.4 |
| 20260507040920 | 15 | 338 | 0.0 | 0.0 | 0.13 | 0.76 | 0.13 | 99 | 998.2 |
| 20260507040406 | 15 | 23 | 0.0 | 6.4 | 0.10 | 0.71 | 0.10 | 99 | 998.8 |
| 20260507035347 | 15 | 23 | 0.0 | 6.4 | 0.10 | 0.69 | 0.05 | 99 | 998.9 |
| 20260507034837 | 15 | 23 | 0.0 | 6.4 | 0.10 | 0.69 | 0.05 | 99 | 998.5 |
| 20260507034327 | 15 | 338 | 0.0 | 6.4 | 0.10 | 0.69 | 0.05 | 99 | 998.0 |